Change the Weather History Date:

Wednesday, March 28, 2012

  Actual Average Record
Temperature  
Mean Temperature 39 °F 32 °F  
Max Temperature 45 °F 41 °F 68 °F (1946)
Min Temperature 33 °F 22 °F -11 °F (1969)
Degree Days  
Heating Degree Days 26 33  
Month to date heating degree days 775 1140  
Since 1 July heating degree days 6612 8290  
Cooling Degree Days 0 0  
Month to date cooling degree days 0 0  
Year to date cooling degree days 0 0  
Moisture  
Dew Point 33 °F    
Average Humidity 81    
Maximum Humidity 96    
Minimum Humidity 65    
Precipitation  
Precipitation 0.18 in 0.03 in 0.57 in (1985)
Month to date precipitation 1.41 0.86  
Year to date precipitation 2.30 1.93  
Snow  
Snow 0.90 in 0.20 in - ()
Month to date snowfall 5.9 6.8  
Since 1 July snowfall 22.8 44.0  
Snow Depth 1.00 in    
Sea Level Pressure  
Sea Level Pressure 30.01 in    
Wind  
Wind Speed 6 mph (NW)    
Max Wind Speed 14 mph    
Max Gust Speed 17 mph    
Visibility 8 miles    
Events Rain , Snow    
T = Trace of Precipitation, MM = Missing Value Source: NWS Daily Summary

Daily Weather History Graph

Daily Weather History Graph

Search for Another Location

Airport or City:

Trip Planner

Search our weather history database for the weather conditions in past years. The results will help you decide how hot, cold, wet, or windy it might be!

Date:

Astronomy

Mar. 28, 2012 Rise Set
Actual Time 7:14 AM CDT 7:53 PM CDT
Civil Twilight 6:42 AM CDT 8:25 PM CDT
Nautical Twilight 6:05 AM CDT 9:02 PM CDT
Astronomical Twilight 5:27 AM CDT 9:41 PM CDT
Moon 10:08 AM CDT (3/28) 1:19 AM CDT (3/28)
Length of Visible Light 13h 42m
Length of Day
12h 39m
Waxing Crescent, 30% of the Moon is Illuminated
Mar 28
Waxing Crescent
Mar 30
First Quarter
Apr 6
Full
Apr 13
Last Quarter
Apr 21
New

Hourly Weather History & Observations

Time (CDT) Temp. Windchill Dew Point Humidity Pressure Visibility Wind Dir Wind Speed Gust Speed Precip Events Conditions
12:12 AM 35.6 °F 26.6 °F 33.8 °F 93% 29.86 in 10.0 mi NW 13.8 mph - 0.00 in Rain Light Rain
12:42 AM 35.6 °F 27.5 °F 33.8 °F 93% 29.87 in 10.0 mi NW 11.5 mph - 0.01 in Rain Light Rain
12:53 AM 35.1 °F 26.4 °F 33.1 °F 92% 29.90 in 10.0 mi NW 12.7 mph - 0.01 in   Overcast
1:53 AM 36.0 °F 29.0 °F 33.1 °F 89% 29.92 in 10.0 mi WNW 9.2 mph - 0.00 in Rain Light Rain
2:04 AM 35.6 °F 28.6 °F 33.8 °F 93% 29.90 in 10.0 mi WNW 9.2 mph - 0.00 in Rain Light Rain
2:32 AM 35.6 °F 28.0 °F 33.8 °F 93% 29.91 in 10.0 mi NW 10.4 mph - 0.01 in Rain Light Rain
2:53 AM 33.1 °F 26.1 °F 32.0 °F 96% 29.95 in 3.0 mi WNW 8.1 mph - 0.02 in Snow Light Snow
2:55 AM 33.8 °F 26.4 °F 32.0 °F 93% 29.92 in 3.0 mi WNW 9.2 mph - 0.00 in Snow Light Snow
3:02 AM 33.8 °F 25.8 °F 32.0 °F 93% 29.92 in 3.0 mi WNW 10.4 mph - 0.00 in Snow Light Snow
3:12 AM 33.8 °F 26.4 °F 32.0 °F 93% 29.92 in 2.5 mi WNW 9.2 mph - 0.01 in Rain , Snow Light Rain
3:38 AM 33.8 °F 26.4 °F 32.0 °F 93% 29.93 in 2.5 mi WNW 9.2 mph - 0.04 in Rain , Snow Light Rain
3:45 AM 33.8 °F 26.4 °F 32.0 °F 93% 29.93 in 1.5 mi WNW 9.2 mph - 0.04 in Snow Light Snow
3:53 AM 33.1 °F 24.9 °F 32.0 °F 96% 29.97 in 1.0 mi WNW 10.4 mph - 0.05 in Snow Light Snow
4:20 AM 33.8 °F 25.8 °F 32.0 °F 93% 29.95 in 1.8 mi WNW 10.4 mph - 0.04 in Snow Light Snow
4:36 AM 33.8 °F 25.8 °F 32.0 °F 93% 29.95 in 2.0 mi WNW 10.4 mph - 0.05 in Snow Light Snow
4:53 AM 33.1 °F 24.9 °F 32.0 °F 96% 29.98 in 2.0 mi NW 10.4 mph - 0.07 in Snow Light Snow
5:44 AM 33.8 °F 25.8 °F 32.0 °F 93% 29.96 in 4.0 mi NW 10.4 mph - 0.04 in Snow Light Snow
5:53 AM 33.1 °F 24.9 °F 32.0 °F 96% 29.99 in 9.0 mi NW 10.4 mph - 0.04 in   Overcast
6:12 AM 33.8 °F 26.4 °F 32.0 °F 93% 29.97 in 10.0 mi NW 9.2 mph - N/A   Mostly Cloudy
6:37 AM 33.8 °F 26.4 °F 32.0 °F 93% 29.98 in 10.0 mi NW 9.2 mph - N/A   Overcast
6:49 AM 33.8 °F 25.8 °F 32.0 °F 93% 29.98 in 10.0 mi NNW 10.4 mph - N/A   Overcast
6:53 AM 33.1 °F 24.4 °F 32.0 °F 96% 30.01 in 10.0 mi NNW 11.5 mph - N/A   Overcast
7:09 AM 33.8 °F 25.8 °F 32.0 °F 93% 29.99 in 10.0 mi NNW 10.4 mph - N/A   Overcast
7:53 AM 34.0 °F 27.2 °F 32.0 °F 92% 30.04 in 10.0 mi NNW 8.1 mph - N/A   Overcast
8:50 AM 33.8 °F 26.4 °F 32.0 °F 93% 30.02 in 10.0 mi NNW 9.2 mph - N/A   Overcast
8:53 AM 34.0 °F 27.2 °F 32.0 °F 92% 30.06 in 10.0 mi NNW 8.1 mph - N/A   Overcast
9:15 AM 33.8 °F 27.7 °F 32.0 °F 93% 30.03 in 10.0 mi North 6.9 mph - N/A   Overcast
9:53 AM 35.1 °F 30.1 °F 33.1 °F 92% 30.08 in 10.0 mi North 5.8 mph - N/A   Overcast
10:53 AM 36.0 °F 29.6 °F 34.0 °F 93% 30.11 in 10.0 mi NW 8.1 mph - N/A   Overcast
11:53 AM 39.0 °F 33.4 °F 35.1 °F 86% 30.11 in 10.0 mi NW 8.1 mph - N/A   Overcast
12:16 PM 39.2 °F 35.0 °F 35.6 °F 87% 30.07 in 10.0 mi NNW 5.8 mph - N/A   Overcast
12:53 PM 41.0 °F 38.0 °F 35.1 °F 79% 30.11 in 10.0 mi NW 4.6 mph - N/A   Overcast
1:53 PM 43.0 °F 38.2 °F 34.0 °F 71% 30.11 in 10.0 mi NW 8.1 mph - N/A   Overcast
2:11 PM 44.6 °F 43.1 °F 33.8 °F 66% 30.08 in 10.0 mi WNW 3.5 mph - N/A   Overcast
2:53 PM 44.1 °F 41.5 °F 34.0 °F 68% 30.10 in 10.0 mi West 4.6 mph - N/A   Overcast
3:24 PM 44.6 °F 43.1 °F 33.8 °F 66% 30.07 in 10.0 mi WNW 3.5 mph - N/A   Overcast
3:53 PM 44.1 °F - 33.1 °F 65% 30.09 in 10.0 mi Calm Calm - N/A   Overcast
4:53 PM 44.1 °F - 34.0 °F 68% 30.09 in 10.0 mi Calm Calm - N/A   Overcast
5:53 PM 45.0 °F 43.5 °F 34.0 °F 65% 30.08 in 10.0 mi ENE 3.5 mph - N/A   Overcast
6:53 PM 44.1 °F - 33.1 °F 65% 30.07 in 10.0 mi Calm Calm - N/A   Mostly Cloudy
7:31 PM 41.0 °F 38.0 °F 33.8 °F 76% 30.03 in 10.0 mi ENE 4.6 mph - N/A   Mostly Cloudy
7:53 PM 41.0 °F - 34.0 °F 76% 30.06 in 10.0 mi Calm Calm - N/A   Overcast
8:53 PM 39.0 °F 36.8 °F 34.0 °F 82% 30.07 in 10.0 mi SSE 3.5 mph - N/A   Overcast
9:53 PM 36.0 °F 32.1 °F 33.1 °F 89% 30.09 in 10.0 mi South 4.6 mph - N/A   Mostly Cloudy
10:53 PM 35.1 °F - 33.1 °F 92% 30.10 in 10.0 mi Calm Calm - N/A   Mostly Cloudy
11:53 PM 34.0 °F 28.0 °F 32.0 °F 92% 30.09 in 10.0 mi SSE 6.9 mph - N/A   Mostly Cloudy